Погода в Герасимовке

Россия / Белгородская область     50°02′34″N   38°08′22″E
темп.,
°C
ветер,
м/с
пор.,
м/с
влажн.,
%
обл.,
%
осадки,
мм/ч
давл.,
гПа
погр.,
м
7 мая, пт
пт700:00+13сз3773100 0.1 1011241
03:00+10сз4796100 2.9 1012401
06:00+9ссз4794100 0.6 1014428
09:00+12с57683 0.6 1015955
12:00+15с44525 0.0 10161533
15:00+16зсз2343100 0.0 10162202
18:00+16юз114755 0.0 10161157
21:00+12вюв445723 0.0 101655
8 мая, сб
сб800:00+10юв41070100 0.0 1015178
03:00+10юв6147096 0.0 1014330
06:00+10ююв61281100 0.0 1013323
09:00+13ю71473100 0.0 1012710
12:00+13ююз61282100 0.4 1011715
15:00+14з51185100 1.0 1010595
18:00+11зсз61195100 3.9 1011632
21:00+9зсз51093100 7.6 1013647
9 мая, вс
вс900:00+6сз4990100 1.4 1016657
03:00+5сз3992100 1.8 1017681
06:00+6ссз41090100 0.1 1017699
09:00+7с71275100 0.1 1018885
12:00+11ссз81057100 0.0 10191386
15:00+13с81048100 0.0 10192325
18:00+11ссз71060100 0.2 10211195
21:00+7ссз4117290 0.2 1024318
10 мая, пн
пн1000:00+5ссз412790 0.0 1025308
03:00+4ссз413790 0.0 1027286
06:00+5с5137856 0.0 1028462
09:00+10с913595 0.0 10281222
12:00+13ссв912495 0.0 10261588
15:00+14ссв9124714 0.0 10251762
18:00+13ссв8125897 0.0 10251451
21:00+12ссв71457100 0.0 10261005
11 мая, вт
вт1100:00+11ссв71463100 0.0 1025738
03:00+9ссв8167232 0.0 1024536
06:00+9ссв71572100 0.0 1024506
09:00+9св81785100 0.4 1024574
12:00+15всв9117392 0.3 1023956
15:00+14всв6118099 0.4 10221030
18:00+11вюв1298100 4.5 1021102
21:00+10в51095100 13.4 1021554